sat.trackr.live / text

‹ back to catalog

STARLINK-4743

NORAD 53787 · 2022-111Q

PAYLOAD ACTIVE UNKNOWN

§ Identity

Operator
Country
US
Launch date
2022-09-11
Launch site
AFETR
Launch vehicle
Mass (kg)
RCS (m²)

Purposes: comms

External: N2YO · Heavens-Above · Gunter

§ Orbital elements

Epoch: 2026-05-25T02:22:45.556032Z

Period
95.44 min
Inclination
53.2151°
Eccentricity
0.0001372
Mean motion
15.08831242 rev/d
Perigee alt
538.8 km
Apogee alt
540.7 km
Semi-major
6,917.9 km
B*
1.0337e-5
RAAN
290.9454°
Arg perigee
94.1102°
Mean anomaly
266.0047°
Rev number
20,523

§ Raw data

STARLINK-47431 53787U 22111Q   26145.09913838 -.00000123  00000+0  10337-4 0  99902 53787  53.2151 290.9454 0001372  94.1102 266.0047 15.08831242205233

JSON: /api/v1/satellites/53787 · /tle

For live sub-satellite position, see the globe view (requires WebGL).

§ Visibility from observer

Set your observer location to see the next 7 days of passes ≥ 10°. The values pass through the URL so the page stays shareable.

No JS? Fill the form by hand. The geolocation button needs JavaScript.